Location: Bailleul
(50.3375°N, 2.8513°E)
Time: 09:16:06
(UTC+00:00)

Terra - Pass Details

Date: 16 June 2021
Orbit: 701 x 703 km, 98.2° (Epoch: 27 July)

Event Time Altitude Azimuth Distance (km) Brightness Sun altitude
Exits shadow 22:44:41 - 216° (SW) 2,220 4.0 -14.9°
Reaches altitude 10° 22:44:51 10° 217° (SW) 2,169 4.0 -14.9°
Maximum altitude 22:48:32 22° 268° (W) 1,512 3.7 -15.1°
Drops below altitude 10° 22:52:16 10° 320° (NW) 2,182 5.4 -15.2°
Sets 22:55:00 0° 335° (NNW) 3,106 6.8 -15.3°
